Regional Weather Roundup
Issued by NWS

Home | Current Version | Previous Version | Text Only | Print | Product List | Glossary Off
Versions: 1 2 3 4 5 6 7 8 9 10 11 12 13 14 15 16 17 18 19 20 21 22 23 24 25 26 27 28 29 30 31 32 33 34 35 36 37 38 39 40 41 42 43 44 45 46 47 48 49 50

836
ASUS45 KCYS 090210
RWRWY

WYOMING REGIONAL WEATHER ROUNDUP
NATIONAL WEATHER SERVICE CHEYENNE WY
700 PM MST THU DEC 08 2016

NOTE:  "FAIR" INDICATES FEW OR NO CLOUDS BELOW 12,000 FEET
WITH NO SIGNIFICANT WEATHER AND/OR OBSTRUCTIONS TO VISIBILITY.

WYZ001-090300-
YELLOWSTONE NATIONAL PARK

CITY           SKY/WX    TMP DP  RH WIND       PRES   REMARKS
LK YELLOWSTONE   N/A      4   1  88 NW3       30.01S
W YELLOWSTONE  NOT AVBL

$$
WYZ002>013-054>058-071-098>099-090300-
NORTHERN WYOMING

CITY           SKY/WX    TMP DP  RH WIND       PRES   REMARKS
JACKSON        MOCLDY     3   1  92 CALM      30.08F
CODY           FAIR      -7 -11  83 CALM      30.15F
GREYBULL       FAIR       7   0  73 CALM      30.23F
WORLAND        FAIR       3  -1  83 NE3       30.20F
SHERIDAN       FAIR      -5 -11  75 CALM      30.27F
BUFFALO        FAIR       1  -6  72 S3        30.19F
GILLETTE       FAIR      -3  -7  82 S3        30.27F
HULETT         FAIR       0  -6  78 E3        30.31F
NEWCASTLE      FAIR       3  -6  66 SE8       30.32F WCI -10

$$
WYZ014>020-022>026-101>103-090300-
CENTRAL WYOMING

CITY           SKY/WX    TMP DP  RH WIND       PRES   REMARKS
BIG PINEY      LGT SNOW   8   4  83 E3        30.12S FOG
PINEDALE       LGT SNOW   9   5  85 NW8       30.13R WCI  -4
DUBOIS         CLOUDY    10   1  67 N10       29.96F WCI  -3
LANDER         FAIR       6  -1  73 W3        30.10F
RIVERTON       FAIR       6  -2  69 N3        30.12F
CASPER         FAIR      -9 -13  83 CALM      30.16F
DOUGLAS        FAIR       5  -2  72 SE15      30.22F WCI -13

$$
WYZ021-027>030-104>119-090300-
SOUTHERN WYOMING

CITY           SKY/WX    TMP DP  RH WIND       PRES   REMARKS
EVANSTON       LGT SNOW  10   5  80 E10       30.06F WCI  -4
FORT BRIDGER   LGT SNOW   7   6  98 CALM      30.13F
ROCK SPRINGS   LGT SNOW   9   6  88 CALM      30.10F FOG
DIXON          FLURRIES  20  17  87 CALM      30.18S
RAWLINS        CLOUDY    19  10  68 W10       30.11F WCI   7
SARATOGA       CLOUDY    19  12  73 CALM      30.11S
LARAMIE        CLOUDY    16   7  67 SW7       30.08S WCI   6
CHEYENNE       CLOUDY     6   2  83 S8        30.18F WCI  -7
TORRINGTON     FAIR       5  -1  76 SE7       30.33R WCI  -7
PINE BLUFFS    FAIR       1  -4  78 MISG      30.28F

$$




USA.gov is the U.S. government's official web portal to all federal, state and local government web resources and services.